[[{"header":{"parameterUnit":"m.s-1","parameterCategory":1,"la1":30.2991,"la2":30.254,"lo1":-89.0895,"lo2":-89.0444,"dx":0.0017,"dy":0.0017,"nx":28,"ny":28,"refTime":"2022-11-05T15:00:00:Z","depth":0,"parameterNumber":2,"parameterNumberName":"U-component_of_WINDS"},"data":[0,0,0,0,0,0,0,0,0,0,0,0,0,0,0,0,0,0,0,0,0,0,0,0,0,0,0,0,0,0,0,0,0,0,0,0,0,0,0,0,0,0,0,0,0,0,0,0,0,0,0,0,0,0,0,0,0,0,-1.4613,-1.4613,0,-1.4644,-1.4644,-1.4645,-1.4601,-1.46,-1.4598,-1.4597,-1.4626,-1.4629,-1.4631,0,0,0,0,0,0,0,0,0,0,0,0,0,-1.4514,-1.4516,-1.4613,-1.4613,-1.4614,-1.4644,-1.4644,-1.4645,-1.4602,-1.46,-1.4598,-1.4596,-1.4626,-1.4628,-1.4631,0,0,0,0,0,0,0,0,0,0,0,0,0,-1.4552,-1.4517,-1.4613,-1.4596,-1.4595,-1.4644,-1.4645,-1.4645,-1.4602,-1.46,-1.4597,-1.4595,-1.4625,-1.4628,-1.4631,-1.4698,0,0,-1.4642,-1.4643,0,0,0,0,0,0,0,0,-1.455,-1.4556,-1.4598,-1.4597,-1.4596,-1.4616,-1.462,-1.4663,-1.4602,-1.4599,-1.4597,-1.4594,-1.4625,-1.4628,-1.4639,-1.47,-1.4701,-1.4642,-1.4644,-1.4645,-1.4646,0,0,0,0,0,0,0,-1.4547,-1.4554,-1.4625,-1.4599,-1.4597,-1.4586,-1.4589,-1.4628,-1.4624,-1.4599,-1.4596,-1.4601,-1.4624,-1.4636,-1.4639,-1.4701,-1.4642,-1.4645,-1.4647,-1.4648,-1.482,-1.4822,0,0,0,0,0,0,-1.4547,-1.4552,-1.4624,-1.4626,-1.4567,-1.459,-1.4593,-1.4612,-1.4624,-1.4624,-1.4602,-1.4598,-1.4631,-1.4635,-1.464,-1.472,-1.4645,-1.4648,-1.465,-1.4817,-1.482,-1.4823,0,0,0,0,0,0,-1.4545,-1.4554,-1.4623,-1.4588,-1.4596,-1.4594,-1.4616,-1.4614,-1.4626,-1.4626,-1.4625,-1.4616,-1.4629,-1.4635,-1.4685,-1.4721,-1.465,-1.4653,-1.4814,-1.4818,-1.4822,-1.4881,0,0,0,0,0,0,-1.4543,-1.4554,-1.4579,-1.4589,-1.4598,-1.4668,-1.4618,-1.4616,-1.4632,-1.4627,-1.4638,-1.4638,-1.4628,-1.468,-1.4688,-1.4724,-1.4656,-1.4811,-1.4816,-1.482,-1.4875,-1.4886,-1.4895,0,0,0,0,0,-1.4539,-1.4594,-1.4581,-1.459,-1.4631,-1.467,-1.4675,-1.4663,-1.4635,-1.4661,-1.4661,-1.4638,-1.4715,-1.4685,-1.4694,-1.4732,-1.4809,-1.4814,-1.482,-1.4871,-1.4884,-1.4895,0,0,0,0,0,0,-1.4587,-1.4595,-1.458,-1.464,-1.4655,-1.4662,-1.4694,-1.4677,-1.4699,-1.4693,-1.4677,-1.468,-1.4733,-1.4737,-1.4703,-1.4797,-1.4757,-1.4765,-1.4793,-1.4805,-1.4815,-1.4813,-1.4658,0,0,0,0,0,-1.4605,-1.4636,-1.4641,-1.4693,-1.4702,-1.4697,-1.4713,-1.4703,-1.4717,-1.4723,-1.4727,-1.4741,-1.4768,-1.4787,-1.4812,-1.4876,-1.4878,-1.4906,-1.4916,-1.4924,-1.4931,-1.4966,-1.4978,-1.4842,-1.4842,-1.4842,0,0,-1.4641,-1.4649,-1.467,-1.4703,-1.4713,-1.4746,-1.4702,-1.4739,-1.4763,-1.4728,-1.4775,-1.4779,-1.4793,-1.485,-1.4876,-1.4855,-1.4969,-1.4931,-1.4937,-1.494,-1.4973,-1.4986,-1.4997,-1.4846,-1.4845,-1.4844,0,0,-1.4725,-1.4734,-1.4779,-1.4791,-1.4807,-1.4804,-1.4814,-1.4825,-1.4826,-1.4874,-1.4849,-1.4877,-1.4924,-1.4936,-1.4948,-1.5038,-1.5017,-1.5046,-1.5098,-1.5132,-1.5143,-1.5152,-1.5185,-1.5197,-1.5053,-1.5053,-1.5053,0,-1.4768,-1.4817,-1.4804,-1.4843,-1.4859,-1.483,-1.4875,-1.4887,-1.491,-1.4921,-1.4898,-1.4959,-1.4966,-1.5026,-1.5048,-1.5059,-1.5071,-1.5045,-1.5142,-1.5152,-1.516,-1.5191,-1.5204,-1.5057,-1.5056,-1.5056,-1.5056,0,-1.487,-1.4905,-1.4939,-1.4964,-1.4983,-1.5025,-1.5018,-1.5039,-1.5027,-1.5027,-1.5075,-1.5084,-1.5111,-1.5124,-1.5112,-1.5183,-1.517,-1.5145,-1.5104,-1.5177,-1.5206,-1.5218,-1.5062,-1.5061,-1.506,-1.5059,0,0,-1.4984,-1.5003,-1.5016,-1.5027,-1.5043,-1.507,-1.511,-1.5138,-1.5157,-1.5173,-1.5208,-1.5249,-1.5227,-1.5241,-1.523,-1.526,-1.5331,-1.5231,-1.5231,-1.525,-1.541,-1.543,-1.5444,-1.5317,-1.532,-1.5321,-1.541,0,-1.5069,-1.5141,-1.5131,-1.5199,-1.5232,-1.5205,-1.524,-1.5254,-1.5255,-1.5281,-1.5281,-1.5311,-1.5279,-1.5287,-1.5316,-1.5317,-1.5363,-1.531,-1.5349,-1.5351,-1.5347,-1.5459,-1.5479,-1.5562,-1.5421,-1.5423,-1.5424,0,-1.5177,-1.52,-1.5272,-1.5285,-1.5298,-1.533,-1.5355,-1.5381,-1.5396,-1.5394,-1.5411,-1.5395,-1.5435,-1.5394,-1.545,-1.5414,-1.5429,-1.5432,-1.5435,-1.5438,-1.5392,-1.5466,-1.5588,-1.5601,-1.5441,-1.544,-1.5439,0,-1.5255,-1.5303,-1.5353,-1.5364,-1.5379,-1.5403,-1.541,-1.5423,-1.544,-1.5462,-1.5473,-1.5499,-1.5513,-1.5533,-1.5524,-1.5495,-1.5582,-1.5539,-1.5582,-1.5582,-1.5602,-1.5601,-1.5728,-1.561,-1.561,-1.561,-1.561,0,-1.5351,-1.5396,-1.5389,-1.542,-1.547,-1.5458,-1.5508,-1.5512,-1.5524,-1.5554,-1.5532,-1.5561,-1.5548,-1.5576,-1.5569,-1.5617,-1.5623,-1.5623,-1.5621,-1.5626,-1.5626,-1.5636,-1.563,-1.5613,-1.5612,-1.5612,-1.5611,0,-1.5446,-1.5443,-1.5496,-1.5507,-1.5511,-1.5547,-1.5556,-1.5585,-1.5584,-1.5623,-1.5632,-1.563,-1.5662,-1.5656,-1.569,-1.5686,-1.5746,-1.5736,-1.5742,-1.574,-1.5783,-1.5779,-1.5922,-1.5941,-1.581,-1.5811,-1.5812,0,-1.5508,-1.5543,-1.5558,-1.5578,-1.5588,-1.5619,-1.5637,-1.5627,-1.5646,-1.5667,-1.5693,-1.5724,-1.5748,-1.58,-1.5802,-1.5829,-1.582,-1.5868,-1.5824,-1.5828,-1.5822,-1.582,-1.5824,-1.5877,-1.5878,-1.588,-1.5881,0,-1.5619,-1.5616,-1.5644,-1.5671,-1.5694,-1.5715,-1.5734,-1.5751,-1.5741,-1.5765,-1.5798,-1.5817,-1.5854,-1.5884,-1.5909,-1.5916,-1.5897,-1.5895,-1.5906,-1.5912,-1.5914,-1.5914,-1.5767,-1.5891,-1.589,-1.589,-1.5889,-1.5889,-1.57,-1.573,-1.5746,-1.5778,-1.5791,-1.5809,-1.5838,-1.5841,-1.5869,-1.5898,-1.589,-1.5928,-1.5943,-1.5975,-1.5984,-1.6014,-1.5996,-1.6012,-1.6016,-1.6021,-1.6027,-1.5909,-1.6018,-1.6018,-1.6018,-1.6017,-1.6017,0,-1.581,-1.582,-1.5849,-1.5877,-1.5902,-1.5883,-1.5903,-1.5925,-1.5959,-1.5975,-1.5999,-1.6038,-1.6068,-1.6072,-1.61,-1.6123,-1.6115,-1.6131,-1.613,-1.6132,-1.6041,-1.6028,-1.6137,-1.6137,-1.6137,-1.6137,-1.6137,-1.6137,-1.5871,-1.5922,-1.5921,-1.5977,-1.5986,-1.6024,-1.6037,-1.6054,-1.6067,-1.6111,-1.6137,-1.6139,-1.615,-1.6179,-1.6206,-1.6206,-1.6218,-1.6238,-1.6235,-1.615,-1.6138,-1.6126,-1.6115,-1.624,-1.624,-1.6323,-1.6324,-1.6325]},{"header":{"parameterUnit":"m.s-1","parameterCategory":1,"la1":30.2991,"la2":30.254,"lo1":-89.0895,"lo2":-89.0444,"dx":0.0017,"dy":0.0017,"nx":28,"ny":28,"refTime":"2022-11-05T15:00:00:Z","depth":0,"parameterNumber":3,"parameterNumberName":"V-component_of_WINDS"},"data":[0,0,0,0,0,0,0,0,0,0,0,0,0,0,0,0,0,0,0,0,0,0,0,0,0,0,0,0,0,0,0,0,0,0,0,0,0,0,0,0,0,0,0,0,0,0,0,0,0,0,0,0,0,0,0,0,0,0,-2.4787,-2.4787,0,-2.4781,-2.4781,-2.4781,-2.4729,-2.4728,-2.4727,-2.4725,-2.4719,-2.472,-2.4721,0,0,0,0,0,0,0,0,0,0,0,0,0,-2.4751,-2.4752,-2.4787,-2.4787,-2.4786,-2.4781,-2.4781,-2.4781,-2.4729,-2.4728,-2.4726,-2.4725,-2.4719,-2.472,-2.4722,0,0,0,0,0,0,0,0,0,0,0,0,0,-2.4758,-2.4753,-2.4787,-2.476,-2.4758,-2.4781,-2.4781,-2.4781,-2.473,-2.4728,-2.4726,-2.4724,-2.4719,-2.472,-2.4722,-2.477,0,0,-2.4727,-2.4727,0,0,0,0,0,0,0,0,-2.4758,-2.476,-2.4764,-2.4762,-2.4759,-2.4754,-2.4767,-2.4778,-2.473,-2.474,-2.4725,-2.4723,-2.4732,-2.4733,-2.4736,-2.477,-2.477,-2.4727,-2.4728,-2.4728,-2.4729,0,0,0,0,0,0,0,-2.4758,-2.476,-2.4784,-2.4764,-2.4761,-2.4748,-2.4747,-2.4768,-2.4747,-2.4739,-2.4735,-2.4736,-2.4731,-2.4735,-2.4735,-2.477,-2.4727,-2.4728,-2.4729,-2.473,-2.4844,-2.4846,0,0,0,0,0,0,-2.4761,-2.476,-2.4785,-2.4784,-2.4754,-2.475,-2.4749,-2.4758,-2.4747,-2.4743,-2.4737,-2.4733,-2.4733,-2.4734,-2.4735,-2.4792,-2.4728,-2.473,-2.4731,-2.4842,-2.4845,-2.4847,0,0,0,0,0,0,-2.476,-2.4764,-2.4785,-2.4771,-2.4773,-2.4753,-2.4763,-2.4758,-2.4762,-2.4745,-2.4741,-2.4745,-2.4731,-2.4733,-2.4762,-2.4791,-2.4731,-2.4732,-2.484,-2.4843,-2.4846,-2.4905,0,0,0,0,0,0,-2.476,-2.4764,-2.4782,-2.4772,-2.4774,-2.4812,-2.4765,-2.476,-2.4765,-2.476,-2.4752,-2.4749,-2.473,-2.476,-2.4764,-2.4792,-2.4733,-2.4837,-2.4841,-2.4845,-2.4901,-2.491,-2.4918,0,0,0,0,0,-2.4759,-2.4799,-2.4783,-2.4787,-2.4796,-2.4814,-2.4815,-2.4793,-2.4768,-2.4786,-2.4775,-2.4749,-2.4787,-2.4764,-2.4767,-2.4796,-2.4835,-2.484,-2.4844,-2.4897,-2.4908,-2.4918,0,0,0,0,0,0,-2.4813,-2.4797,-2.478,-2.4818,-2.4818,-2.4805,-2.4827,-2.4806,-2.4813,-2.4807,-2.4779,-2.4778,-2.4812,-2.4807,-2.4781,-2.4843,-2.4806,-2.4812,-2.4845,-2.4856,-2.4864,-2.4865,-2.4735,0,0,0,0,0,-2.4829,-2.4845,-2.483,-2.4866,-2.4866,-2.4847,-2.4854,-2.4837,-2.4836,-2.4835,-2.4827,-2.4826,-2.4838,-2.4847,-2.4857,-2.49,-2.4897,-2.4921,-2.493,-2.4937,-2.4943,-2.4965,-2.4976,-2.4862,-2.4862,-2.4862,0,0,-2.4863,-2.4857,-2.4868,-2.4876,-2.4874,-2.4891,-2.4847,-2.4867,-2.488,-2.4838,-2.4866,-2.4859,-2.4857,-2.4894,-2.4909,-2.4891,-2.4974,-2.4943,-2.4949,-2.4951,-2.4971,-2.4982,-2.4992,-2.4866,-2.4865,-2.4864,0,0,-2.4934,-2.4931,-2.496,-2.4959,-2.4956,-2.4943,-2.495,-2.4941,-2.4936,-2.4963,-2.4932,-2.4947,-2.4968,-2.4967,-2.497,-2.5042,-2.5018,-2.5046,-2.5091,-2.5114,-2.5123,-2.513,-2.5156,-2.5166,-2.5051,-2.5051,-2.5051,0,-2.4976,-2.5001,-2.4977,-2.4999,-2.5004,-2.4968,-2.4997,-2.4997,-2.4998,-2.5002,-2.4981,-2.5007,-2.5003,-2.5039,-2.5057,-2.506,-2.5067,-2.5046,-2.5123,-2.5131,-2.5138,-2.5162,-2.5172,-2.5054,-2.5054,-2.5054,-2.5053,0,-2.5054,-2.5071,-2.5095,-2.5097,-2.5105,-2.513,-2.511,-2.512,-2.5103,-2.5093,-2.5121,-2.5115,-2.5123,-2.513,-2.5113,-2.5164,-2.5153,-2.5128,-2.5091,-2.5153,-2.5175,-2.5184,-2.5059,-2.5058,-2.5057,-2.5056,0,0,-2.5158,-2.5147,-2.5156,-2.5157,-2.5152,-2.5165,-2.5189,-2.5198,-2.5207,-2.5209,-2.5229,-2.5248,-2.5225,-2.5228,-2.5211,-2.5231,-2.5289,-2.5204,-2.5203,-2.522,-2.5345,-2.5364,-2.5375,-2.5273,-2.5274,-2.5276,-2.5345,0,-2.5226,-2.5267,-2.5246,-2.529,-2.5306,-2.5272,-2.5293,-2.5293,-2.5283,-2.5296,-2.5285,-2.5299,-2.5268,-2.527,-2.5288,-2.5278,-2.5313,-2.5273,-2.5291,-2.5292,-2.5293,-2.5386,-2.5406,-2.5472,-2.5354,-2.5355,-2.5356,0,-2.5311,-2.5317,-2.5362,-2.5355,-2.5361,-2.538,-2.5387,-2.5399,-2.5398,-2.539,-2.5394,-2.5372,-2.5395,-2.5359,-2.539,-2.5363,-2.5369,-2.5366,-2.5367,-2.5368,-2.5328,-2.539,-2.5492,-2.5502,-2.537,-2.5369,-2.5368,0,-2.5383,-2.5402,-2.5432,-2.5434,-2.5426,-2.544,-2.5438,-2.5434,-2.5441,-2.5447,-2.5451,-2.5459,-2.5464,-2.5471,-2.5452,-2.5427,-2.5486,-2.5448,-2.548,-2.5481,-2.5494,-2.5494,-2.5599,-2.5498,-2.5498,-2.5498,-2.5498,0,-2.5461,-2.549,-2.5464,-2.5483,-2.5514,-2.5491,-2.5523,-2.5516,-2.5514,-2.553,-2.5501,-2.5517,-2.5492,-2.5505,-2.5491,-2.5519,-2.5521,-2.5516,-2.5511,-2.5518,-2.5519,-2.5522,-2.5517,-2.5501,-2.55,-2.5499,-2.5499,0,-2.5547,-2.553,-2.5561,-2.5551,-2.5549,-2.5573,-2.5565,-2.5581,-2.557,-2.5592,-2.5595,-2.5578,-2.5593,-2.5575,-2.5587,-2.5578,-2.5617,-2.5606,-2.5618,-2.5614,-2.5648,-2.5645,-2.5759,-2.5773,-2.5663,-2.5664,-2.5665,0,-2.5598,-2.5619,-2.5612,-2.5622,-2.5621,-2.5636,-2.5643,-2.562,-2.5629,-2.5629,-2.5646,-2.5658,-2.5666,-2.5691,-2.568,-2.569,-2.5679,-2.5718,-2.568,-2.5686,-2.568,-2.5679,-2.5681,-2.5726,-2.5727,-2.5728,-2.5729,0,-2.569,-2.5681,-2.5693,-2.5701,-2.5711,-2.5716,-2.572,-2.5729,-2.5705,-2.5716,-2.5731,-2.5738,-2.5751,-2.5764,-2.577,-2.5767,-2.5745,-2.5741,-2.5749,-2.5757,-2.5763,-2.576,-2.5639,-2.5739,-2.5738,-2.5737,-2.5736,-2.5736,-2.576,-2.5778,-2.5776,-2.579,-2.579,-2.5794,-2.581,-2.5801,-2.5813,-2.5822,-2.5808,-2.5827,-2.5825,-2.5832,-2.5832,-2.5846,-2.5829,-2.5841,-2.5844,-2.5847,-2.5853,-2.5761,-2.5847,-2.5847,-2.5847,-2.5847,-2.5846,0,-2.5852,-2.5849,-2.5862,-2.5868,-2.5879,-2.5857,-2.5859,-2.587,-2.5887,-2.5887,-2.5897,-2.5914,-2.5926,-2.5916,-2.5926,-2.594,-2.593,-2.5943,-2.5942,-2.5942,-2.5867,-2.5859,-2.5951,-2.5951,-2.5951,-2.5951,-2.5951,-2.5951,-2.59,-2.593,-2.5921,-2.595,-2.5947,-2.5966,-2.5969,-2.5973,-2.5973,-2.5994,-2.6004,-2.5998,-2.5994,-2.6004,-2.6014,-2.6011,-2.6016,-2.6034,-2.6027,-2.5957,-2.5947,-2.5937,-2.593,-2.6035,-2.6035,-2.6101,-2.6101,-2.6102]}]]